When you browse on this site, cookies collect data to enhance your experience and personalize the content and advertising you see.
Visit our Privacy Policy to learn more. By continuing to use the site, you agree to this use of cookies and data.
  • In Österreich
  • Länderverzeichnis
  • Für 7 Tage
  • Wassertemperatur
  • Wetterkarte
  • News
  • Widgets
  • user-avatar
    Anmelden

    Stündliche Wetter Baden

    Heute, 23 Februar, Sonntag

    Zeit Temperatur Niederschläge Wind Luftdruck Luftfeuchtigkeit
    00:00 +8°C° 0 mm 3 m/S 741 mmHg 51%
    01:00 +8°C° 0 mm 3 m/S 740 mmHg 54%
    02:00 +7°C° 0.1 mm 4 m/S 740 mmHg 60%
    03:00 +7°C° 0.1 mm 5 m/S 740 mmHg 65%
    04:00 +7°C° 0.1 mm 5 m/S 739 mmHg 71%
    05:00 +7°C° 0.1 mm 6 m/S 739 mmHg 72%
    06:00 +7°C° 0.1 mm 6 m/S 739 mmHg 72%
    07:00 +7°C° 0 mm 6 m/S 740 mmHg 71%
    08:00 +8°C° 0 mm 6 m/S 739 mmHg 70%
    09:00 +9°C° 0 mm 6 m/S 739 mmHg 68%
    10:00 +9°C° 0 mm 6 m/S 738 mmHg 67%
    11:00 +10°C° 0 mm 6 m/S 738 mmHg 65%
    12:00 +11°C° 0 mm 6 m/S 737 mmHg 63%
    13:00 +12°C° 0 mm 5 m/S 736 mmHg 63%
    14:00 +12°C° 0 mm 4 m/S 735 mmHg 63%
    15:00 +12°C° 0 mm 4 m/S 734 mmHg 63%
    16:00 +12°C° 0 mm 3 m/S 733 mmHg 63%
    17:00 +12°C° 0 mm 4 m/S 733 mmHg 64%
    18:00 +12°C° 0 mm 5 m/S 732 mmHg 66%
    19:00 +11°C° 0 mm 6 m/S 732 mmHg 67%
    20:00 +11°C° 0 mm 7 m/S 732 mmHg 65%
    21:00 +12°C° 0 mm 8 m/S 731 mmHg 64%
    22:00 +12°C° 0 mm 10 m/S 731 mmHg 62%
    23:00 +12°C° 0.1 mm 10 m/S 732 mmHg 64%

    Morgen, 24 Februar, Montag

    Zeit Temperatur Niederschläge Wind Luftdruck Luftfeuchtigkeit
    00:00 +12°C° 0.1 mm 10 m/S 732 mmHg 66%
    01:00 +11°C° 0.1 mm 11 m/S 733 mmHg 69%
    02:00 +9°C° 0.6 mm 10 m/S 734 mmHg 67%
    03:00 +7°C° 0.6 mm 10 m/S 734 mmHg 65%
    04:00 +6°C° 0.6 mm 10 m/S 735 mmHg 63%
    05:00 +5°C° 0.1 mm 9 m/S 736 mmHg 60%
    06:00 +4°C° 0.1 mm 8 m/S 738 mmHg 57%
    07:00 +3°C° 0.1 mm 7 m/S 739 mmHg 54%
    08:00 +3°C° 0 mm 6 m/S 739 mmHg 53%
    09:00 +4°C° 0 mm 6 m/S 740 mmHg 53%
    10:00 +5°C° 0 mm 6 m/S 740 mmHg 52%
    11:00 +5°C° 0 mm 6 m/S 740 mmHg 50%
    12:00 +7°C° 0 mm 5 m/S 740 mmHg 47%
    13:00 +8°C° 0 mm 5 m/S 739 mmHg 44%
    14:00 +7°C° 0 mm 4 m/S 739 mmHg 48%
    15:00 +7°C° 0 mm 4 m/S 738 mmHg 51%
    16:00 +8°C° 0 mm 3 m/S 738 mmHg 54%
    17:00 +7°C° 0 mm 3 m/S 737 mmHg 60%
    18:00 +7°C° 0 mm 2 m/S 736 mmHg 66%
    19:00 +7°C° 0 mm 2 m/S 736 mmHg 72%
    20:00 +7°C° 0 mm 2 m/S 735 mmHg 74%
    21:00 +7°C° 0 mm 2 m/S 735 mmHg 75%
    22:00 +7°C° 0 mm 2 m/S 734 mmHg 77%
    23:00 +6°C° 0 mm 2 m/S 733 mmHg 78%

    übermorgen, 25 Februar, Dienstag

    Zeit Temperatur Niederschläge Wind Luftdruck Luftfeuchtigkeit
    00:00 +6°C° 0 mm 2 m/S 733 mmHg 78%
    01:00 +6°C° 0 mm 2 m/S 732 mmHg 79%
    02:00 +7°C° 0 mm 1 m/S 732 mmHg 79%
    03:00 +7°C° 0 mm 1 m/S 731 mmHg 79%
    04:00 +7°C° 0 mm 1 m/S 730 mmHg 79%
    05:00 +7°C° 0 mm 1 m/S 730 mmHg 79%
    06:00 +7°C° 0 mm 1 m/S 730 mmHg 79%
    07:00 +7°C° 0 mm 1 m/S 730 mmHg 78%
    08:00 +7°C° 0 mm 2 m/S 729 mmHg 72%
    09:00 +9°C° 0 mm 2 m/S 729 mmHg 65%
    10:00 +10°C° 0 mm 3 m/S 729 mmHg 59%
    11:00 +11°C° 0 mm 3 m/S 728 mmHg 55%
    12:00 +12°C° 0 mm 3 m/S 728 mmHg 51%
    13:00 +13°C° 0 mm 3 m/S 727 mmHg 48%
    14:00 +14°C° 0 mm 2 m/S 726 mmHg 50%
    15:00 +14°C° 0 mm 2 m/S 725 mmHg 52%
    16:00 +13°C° 0 mm 2 m/S 725 mmHg 54%
    17:00 +12°C° 0 mm 2 m/S 725 mmHg 57%
    18:00 +10°C° 0 mm 2 m/S 725 mmHg 60%
    19:00 +10°C° 0 mm 2 m/S 724 mmHg 63%
    20:00 +9°C° 0.3 mm 3 m/S 724 mmHg 68%
    21:00 +8°C° 0.3 mm 4 m/S 724 mmHg 74%
    22:00 +7°C° 0.3 mm 5 m/S 724 mmHg 79%
    23:00 +7°C° 0.1 mm 4 m/S 724 mmHg 79%

    26 Februar, Mittwoch

    Zeit Temperatur Niederschläge Wind Luftdruck Luftfeuchtigkeit
    00:00 +6°C° 0.1 mm 4 m/S 724 mmHg 80%
    01:00 +7°C° 0.1 mm 3 m/S 724 mmHg 80%
    02:00 +6°C° 0.1 mm 4 m/S 723 mmHg 77%
    03:00 +5°C° 0.1 mm 4 m/S 723 mmHg 74%
    04:00 +4°C° 0.1 mm 4 m/S 723 mmHg 71%
    05:00 +4°C° 0 mm 4 m/S 722 mmHg 71%
    06:00 +4°C° 0 mm 4 m/S 722 mmHg 72%
    07:00 +4°C° 0 mm 4 m/S 722 mmHg 72%
    08:00 +4°C° 0 mm 4 m/S 722 mmHg 70%
    09:00 +5°C° 0 mm 4 m/S 722 mmHg 67%
    10:00 +5°C° 0 mm 3 m/S 722 mmHg 65%
    11:00 +5°C° 0.2 mm 4 m/S 722 mmHg 62%
    12:00 +6°C° 0.2 mm 4 m/S 722 mmHg 58%
    13:00 +6°C° 0.2 mm 5 m/S 722 mmHg 55%
    14:00 +5°C° 0.2 mm 5 m/S 722 mmHg 58%
    15:00 +3°C° 0.2 mm 6 m/S 722 mmHg 62%
    16:00 +3°C° 0.2 mm 6 m/S 722 mmHg 65%
    17:00 +2°C° 0 mm 6 m/S 723 mmHg 65%
    18:00 +2°C° 0 mm 6 m/S 723 mmHg 64%
    19:00 +1°C° 0 mm 6 m/S 724 mmHg 63%
    20:00 +1°C° 0 mm 6 m/S 724 mmHg 62%
    21:00 -1°C° 0 mm 7 m/S 724 mmHg 61%
    22:00 -1°C° 0 mm 7 m/S 724 mmHg 60%
    23:00 -1°C° 0 mm 7 m/S 724 mmHg 63%

    27 Februar, Donnerstag

    Zeit Temperatur Niederschläge Wind Luftdruck Luftfeuchtigkeit
    00:00 -1°C° 0 mm 7 m/S 725 mmHg 67%
    01:00 -2°C° 0 mm 7 m/S 725 mmHg 70%
    02:00 -2°C° 0.1 mm 7 m/S 725 mmHg 72%
    03:00 -2°C° 0.1 mm 8 m/S 725 mmHg 73%
    04:00 -1°C° 0.1 mm 8 m/S 726 mmHg 75%
    05:00 -2°C° 0.1 mm 8 m/S 726 mmHg 74%
    06:00 -2°C° 0.1 mm 8 m/S 727 mmHg 74%
    07:00 -2°C° 0.1 mm 7 m/S 728 mmHg 73%
    08:00 -1°C° 0 mm 8 m/S 728 mmHg 69%
    09:00 0°C° 0 mm 8 m/S 729 mmHg 65%
    10:00 0°C° 0 mm 8 m/S 730 mmHg 61%
    11:00 +1°C° 0.1 mm 8 m/S 730 mmHg 58%
    12:00 +2°C° 0.1 mm 8 m/S 730 mmHg 55%
    13:00 +3°C° 0.1 mm 7 m/S 730 mmHg 53%
    14:00 +3°C° 0.1 mm 7 m/S 730 mmHg 51%
    15:00 +3°C° 0.1 mm 6 m/S 730 mmHg 50%
    16:00 +3°C° 0.1 mm 6 m/S 729 mmHg 49%
    17:00 +2°C° 0 mm 5 m/S 729 mmHg 54%
    18:00 +2°C° 0 mm 3 m/S 729 mmHg 58%
    19:00 +2°C° 0 mm 2 m/S 729 mmHg 63%
    20:00 +2°C° 0 mm 2 m/S 729 mmHg 62%
    21:00 +2°C° 0 mm 2 m/S 728 mmHg 61%
    22:00 +2°C° 0 mm 2 m/S 728 mmHg 60%
    23:00 +2°C° 0 mm 2 m/S 727 mmHg 62%

    28 Februar, Freitag

    Zeit Temperatur Niederschläge Wind Luftdruck Luftfeuchtigkeit
    00:00 +1°C° 0 mm 3 m/S 726 mmHg 65%
    01:00 +1°C° 0 mm 3 m/S 725 mmHg 67%
    02:00 +2°C° 0 mm 2 m/S 725 mmHg 70%
    03:00 +2°C° 0 mm 2 m/S 724 mmHg 72%
    04:00 +2°C° 0 mm 1 m/S 724 mmHg 75%
    05:00 +2°C° 0 mm 2 m/S 724 mmHg 75%
    06:00 +2°C° 0 mm 2 m/S 724 mmHg 76%
    07:00 +2°C° 0 mm 3 m/S 724 mmHg 76%
    08:00 +4°C° 0 mm 4 m/S 724 mmHg 72%
    09:00 +6°C° 0 mm 5 m/S 725 mmHg 67%
    10:00 +8°C° 0 mm 6 m/S 725 mmHg 63%
    11:00 +8°C° 0 mm 6 m/S 725 mmHg 63%
    12:00 +8°C° 0 mm 7 m/S 726 mmHg 64%
    13:00 +8°C° 0 mm 7 m/S 726 mmHg 64%
    14:00 +8°C° 0 mm 6 m/S 726 mmHg 66%
    15:00 +8°C° 0 mm 5 m/S 727 mmHg 69%
    16:00 +7°C° 0 mm 4 m/S 727 mmHg 71%
    17:00 +8°C° 0.1 mm 3 m/S 727 mmHg 75%
    18:00 +7°C° 0.1 mm 3 m/S 727 mmHg 79%
    19:00 +7°C° 0.1 mm 2 m/S 727 mmHg 83%
    20:00 +7°C° 0.2 mm 2 m/S 727 mmHg 83%
    21:00 +7°C° 0.2 mm 2 m/S 727 mmHg 84%
    22:00 +6°C° 0.2 mm 2 m/S 727 mmHg 85%
    23:00 +6°C° 0.2 mm 2 m/S 727 mmHg 84%
    Mehr zeigen